Weather History for KGHW - September, 2012

Change the Weather History Date:

Sunday, September 9, 2012

  Actual Average Record
Temperature  
Mean Temperature 58 °F -  
Max Temperature 71 °F 73 °F 93 °F (1961)
Min Temperature 46 °F 50 °F 37 °F (1976)
Degree Days  
Heating Degree Days 6    
Growing Degree Days 8 (Base 50)    
Moisture  
Dew Point 43 °F    
Average Humidity 61    
Maximum Humidity 93    
Minimum Humidity 29    
Precipitation  
Precipitation 0.00 in - - ()
Sea Level Pressure  
Sea Level Pressure 30.15 in    
Wind  
Wind Speed 5 mph (West)    
Max Wind Speed 9 mph    
Max Gust Speed -    
Visibility 10 miles    
Events      
Averages and records for this station are not official NWS values.
T = Trace of Precipitation, MM = Missing Value Source: NWS Daily Summary

Daily Weather History Graph

Daily Weather History Graph

Search for Another Location

Airport or City:

Trip Planner

Search our weather history database for the weather conditions in past years. The results will help you decide how hot, cold, wet, or windy it might be!

Date:

Astronomy

Sep. 09, 2012 Rise Set
Actual Time 6:52 AM CDT 7:43 PM CDT
Civil Twilight 6:22 AM CDT 8:13 PM CDT
Nautical Twilight 5:46 AM CDT 8:48 PM CDT
Astronomical Twilight 5:09 AM CDT 9:26 PM CDT
Moon 12:09 AM CDT (9/9) 3:42 PM CDT (9/9)
Length of Visible Light 13h 50m
Length of Day
12h 50m
Last Quarter, 39% of the Moon is Illuminated
Sep 9
Last Quarter
Sep 15
New
Sep 22
First Quarter
Sep 29
Full
Oct 8
Last Quarter

Hourly Weather History & Observations

Time (CDT) Temp. Windchill Dew Point Humidity Pressure Visibility Wind Dir Wind Speed Gust Speed Precip Events Conditions
12:13 AM 55.4 °F - 46.4 °F 72% 30.12 in 10.0 mi North 4.6 mph - N/A   Mostly Cloudy
12:33 AM 53.6 °F - 46.4 °F 77% 30.12 in 10.0 mi North 5.8 mph - N/A   Scattered Clouds
12:53 AM 53.6 °F - 44.6 °F 72% 30.12 in 10.0 mi NNW 5.8 mph - N/A   Clear
1:13 AM 53.6 °F - 46.4 °F 77% 30.12 in 10.0 mi North 8.1 mph - N/A   Clear
1:33 AM 53.6 °F - 46.4 °F 77% 30.13 in 10.0 mi NNW 6.9 mph - N/A   Clear
1:53 AM 51.8 °F - 44.6 °F 76% 30.13 in 10.0 mi NNW 5.8 mph - N/A   Clear
2:13 AM 51.8 °F - 44.6 °F 76% 30.13 in 10.0 mi NNW 6.9 mph - N/A   Clear
2:34 AM 50.0 °F - 44.6 °F 82% 30.14 in 10.0 mi NNW 3.5 mph - N/A   Clear
2:53 AM 50.0 °F - 44.6 °F 82% 30.14 in 10.0 mi NNW 4.6 mph - N/A   Clear
3:13 AM 48.2 °F - 44.6 °F 87% 30.15 in 10.0 mi NNW 3.5 mph - N/A   Clear
3:34 AM 48.2 °F - 44.6 °F 87% 30.16 in 10.0 mi NNW 4.6 mph - N/A   Clear
3:53 AM 48.2 °F - 44.6 °F 87% 30.16 in 10.0 mi NNW 4.6 mph - N/A   Clear
4:13 AM 48.2 °F - 44.6 °F 87% 30.16 in 10.0 mi NNW 4.6 mph - N/A   Clear
4:34 AM 48.2 °F - 44.6 °F 87% 30.17 in 10.0 mi NNW 4.6 mph - N/A   Clear
4:53 AM 46.4 °F 44.3 °F 42.8 °F 87% 30.17 in 10.0 mi NNW 4.6 mph - N/A   Clear
5:13 AM 46.4 °F 44.3 °F 44.6 °F 93% 30.17 in 10.0 mi NNW 4.6 mph - N/A   Clear
5:34 AM 46.4 °F 44.3 °F 44.6 °F 93% 30.18 in 10.0 mi North 4.6 mph - N/A   Clear
5:53 AM 46.4 °F 45.2 °F 42.8 °F 87% 30.18 in 10.0 mi North 3.5 mph - N/A   Clear
6:13 AM 46.4 °F 44.3 °F 44.6 °F 93% 30.19 in 10.0 mi North 4.6 mph - N/A   Clear
6:34 AM 46.4 °F 43.5 °F 44.6 °F 93% 30.19 in 10.0 mi North 5.8 mph - N/A   Clear
6:53 AM 46.4 °F 43.5 °F 44.6 °F 93% 30.20 in 10.0 mi North 5.8 mph - N/A   Clear
7:53 AM 48.2 °F - 44.6 °F 87% 30.21 in 10.0 mi North 6.9 mph - N/A   Clear
8:13 AM 51.8 °F - 46.4 °F 82% 30.22 in 10.0 mi North 5.8 mph - N/A   Clear
8:33 AM 51.8 °F - 46.4 °F 82% 30.22 in 10.0 mi North 5.8 mph - N/A   Clear
8:53 AM 53.6 °F - 48.2 °F 82% 30.22 in 10.0 mi North 3.5 mph - N/A   Clear
9:13 AM 55.4 °F - 48.2 °F 77% 30.22 in 10.0 mi Calm Calm - N/A   Clear
9:33 AM 57.2 °F - 48.2 °F 72% 30.22 in 10.0 mi Calm Calm - N/A   Clear
9:53 AM 57.2 °F - 48.2 °F 72% 30.22 in 10.0 mi Calm Calm - N/A   Clear
10:14 AM 60.8 °F - 48.2 °F 63% 30.23 in 10.0 mi Calm Calm - N/A   Clear
10:33 AM 62.6 °F - 48.2 °F 59% 30.23 in 10.0 mi SW 4.6 mph - N/A   Scattered Clouds
10:53 AM 62.6 °F - 46.4 °F 55% 30.23 in 10.0 mi West 3.5 mph - N/A   Scattered Clouds
11:14 AM 62.6 °F - 44.6 °F 52% 30.23 in 10.0 mi SSW 3.5 mph - N/A   Clear
11:33 AM 64.4 °F - 44.6 °F 49% 30.23 in 10.0 mi SW 6.9 mph - N/A   Clear
11:53 AM 64.4 °F - 41.0 °F 42% 30.22 in 10.0 mi WNW 4.6 mph - N/A   Clear
12:14 PM 66.2 °F - 41.0 °F 40% 30.22 in 10.0 mi West 4.6 mph - N/A   Clear
12:33 PM 66.2 °F - 41.0 °F 40% 30.21 in 10.0 mi WSW 3.5 mph - N/A   Clear
12:53 PM 66.2 °F - 42.8 °F 43% 30.21 in 10.0 mi West 4.6 mph - N/A   Clear
1:13 PM 66.2 °F - 42.8 °F 43% 30.20 in 10.0 mi WSW 9.2 mph - N/A   Clear
1:33 PM 68.0 °F - 41.0 °F 37% 30.19 in 10.0 mi West 6.9 mph - N/A   Clear
1:53 PM 68.0 °F - 39.2 °F 35% 30.18 in 10.0 mi West 5.8 mph - N/A   Clear
2:13 PM 69.8 °F - 39.2 °F 33% 30.18 in 10.0 mi SSW 5.8 mph - N/A   Clear
2:33 PM 69.8 °F - 37.4 °F 31% 30.17 in 10.0 mi Calm Calm - N/A   Clear
2:53 PM 69.8 °F - 39.2 °F 33% 30.16 in 10.0 mi West 8.1 mph - N/A   Clear
3:13 PM 71.6 °F - 39.2 °F 31% 30.16 in 10.0 mi SW 4.6 mph - N/A   Clear
3:33 PM 71.6 °F - 37.4 °F 29% 30.15 in 10.0 mi West 5.8 mph - N/A   Clear
3:53 PM 71.6 °F - 37.4 °F 29% 30.14 in 10.0 mi Calm Calm - N/A   Clear
4:13 PM 71.6 °F - 37.4 °F 29% 30.14 in 10.0 mi SW 8.1 mph - N/A   Clear
4:33 PM 71.6 °F - 37.4 °F 29% 30.13 in 10.0 mi Calm Calm - N/A   Clear
4:53 PM 71.6 °F - 37.4 °F 29% 30.12 in 10.0 mi SSW 8.1 mph - N/A   Clear
5:13 PM 71.6 °F - 37.4 °F 29% 30.11 in 10.0 mi South 5.8 mph - N/A   Clear
5:33 PM 71.6 °F - 37.4 °F 29% 30.11 in 10.0 mi SSW 4.6 mph - N/A   Clear
5:54 PM 71.6 °F - 37.4 °F 29% 30.10 in 10.0 mi SSW 5.8 mph - N/A   Clear
6:13 PM 71.6 °F - 37.4 °F 29% 30.10 in 10.0 mi South 4.6 mph - N/A   Clear
6:33 PM 69.8 °F - 37.4 °F 31% 30.10 in 10.0 mi SSW 4.6 mph - N/A   Clear
6:54 PM 69.8 °F - 42.8 °F 38% 30.09 in 10.0 mi South 3.5 mph - N/A   Clear
7:13 PM 66.2 °F - 42.8 °F 43% 30.08 in 10.0 mi South 4.6 mph - N/A   Clear
7:33 PM 64.4 °F - 44.6 °F 49% 30.08 in 10.0 mi South 3.5 mph - N/A   Clear
7:54 PM 62.6 °F - 44.6 °F 52% 30.08 in 10.0 mi South 4.6 mph - N/A   Clear
8:13 PM 60.8 °F - 42.8 °F 52% 30.08 in 10.0 mi SSE 4.6 mph - N/A   Clear
8:33 PM 57.2 °F - 44.6 °F 63% 30.07 in 10.0 mi SE 5.8 mph - N/A   Clear
8:54 PM 55.4 °F - 44.6 °F 67% 30.07 in 10.0 mi SE 6.9 mph - N/A   Clear
9:13 PM 55.4 °F - 44.6 °F 67% 30.08 in 10.0 mi SE 5.8 mph - N/A   Clear
9:33 PM 53.6 °F - 44.6 °F 72% 30.07 in 10.0 mi SE 5.8 mph - N/A   Clear
9:54 PM 55.4 °F - 44.6 °F 67% 30.07 in 10.0 mi SE 8.1 mph - N/A   Clear
10:13 PM 55.4 °F - 44.6 °F 67% 30.07 in 10.0 mi SE 8.1 mph - N/A   Clear
10:33 PM 53.6 °F - 44.6 °F 72% 30.07 in 10.0 mi SE 8.1 mph - N/A   Clear
10:54 PM 53.6 °F - 44.6 °F 72% 30.07 in 10.0 mi SE 9.2 mph - N/A   Clear
11:13 PM 53.6 °F - 44.6 °F 72% 30.06 in 10.0 mi SSE 8.1 mph - N/A   Clear
11:33 PM 51.8 °F - 42.8 °F 71% 30.06 in 10.0 mi SE 6.9 mph - N/A   Scattered Clouds
11:54 PM 51.8 °F - 42.8 °F 71% 30.06 in 10.0 mi SSE 6.9 mph - N/A   Clear